Tracking 28081 objects as of 27-Sep-2023
HD Live streaming from Space Station
objects crossing your sky now

EKRAN 4

Track EKRAN 4 now!
EKRAN 4 is classified as:


NORAD ID: 11561
Int'l Code: 1979-087A
Perigee: 35,727.6 km
Apogee: 35,831.3 km
Inclination: 8.1 °
Period: 1,435.4 minutes
Semi major axis: 42150 km
RCS: 0.1995 m2 (medium)
Launch date: October 3, 1979
Source: Commonwealth of Independent States (former USSR) (CIS)
Launch site: TYURATAM MISSILE AND SPACE COMPLEX (TTMTR)
Your satellite tracking list
Your tracking list is empty




NASA's NSSDC Master Catalog

Two Line Element Set (TLE):
1 11561U 79087A   23269.70646958 -.00000108  00000-0  00000-0 0  9992
2 11561   8.0555 295.5821 0012300 200.2780 197.1140  1.00322905 37405
Source of the keplerian elements: AFSPC